• In Deutschland
  • Länderverzeichnis
  • Für 7 Tage
  • Wassertemperatur
  • Satellitenkarten
  • Wetterkarte
  • Widgets
  • user-avatar
    Anmelden

    Stündliche Wetter Bad Aibling

    Heute, 21 Januar, Sonntag

    Zeit Temperatur Niederschläge Wind Luftdruck Luftfeuchtigkeit
    00:00 +1°C° 1,2 mm 2 m/S 706 mmHg 94%
    01:00 +1°C° 0 mm 2 m/S 705 mmHg 98%
    02:00 +1°C° 1,3 mm 2 m/S 706 mmHg 97%
    03:00 0°C° 1,3 mm 3 m/S 706 mmHg 97%
    04:00 0°C° 1,3 mm 3 m/S 707 mmHg 96%
    05:00 0°C° 1,1 mm 3 m/S 707 mmHg 95%
    06:00 0°C° 1,1 mm 3 m/S 708 mmHg 95%
    07:00 0°C° 0 mm 3 m/S 709 mmHg 95%
    08:00 -1°C° 0,8 mm 4 m/S 710 mmHg 94%
    09:00 -1°C° 0,8 mm 4 m/S 711 mmHg 93%
    10:00 -1°C° 0,8 mm 5 m/S 712 mmHg 92%
    11:00 -1°C° 0,6 mm 5 m/S 713 mmHg 92%
    12:00 -1°C° 0,6 mm 5 m/S 713 mmHg 91%
    13:00 -1°C° 0 mm 5 m/S 714 mmHg 90%
    14:00 -1°C° 0,3 mm 4 m/S 715 mmHg 90%
    15:00 -1°C° 0,3 mm 4 m/S 716 mmHg 90%
    16:00 -2°C° 0,3 mm 4 m/S 717 mmHg 90%
    17:00 -2°C° 0,1 mm 3 m/S 718 mmHg 91%
    18:00 -3°C° 0,1 mm 2 m/S 718 mmHg 92%
    19:00 -4°C° 0,1 mm 2 m/S 719 mmHg 94%
    20:00 -5°C° 0 mm 2 m/S 719 mmHg 93%
    21:00 -5°C° 0 mm 2 m/S 719 mmHg 92%
    22:00 -6°C° 0 mm 2 m/S 719 mmHg 91%
    23:00 -5°C° 0,1 mm 2 m/S 718 mmHg 90%

    Morgen, 22 Januar, Montag

    Zeit Temperatur Niederschläge Wind Luftdruck Luftfeuchtigkeit
    00:00 -5°C° 0,1 mm 2 m/S 718 mmHg 90%
    01:00 -4°C° 0,1 mm 2 m/S 717 mmHg 90%
    02:00 -4°C° 0,8 mm 2 m/S 717 mmHg 91%
    03:00 -3°C° 0,8 mm 2 m/S 716 mmHg 93%
    04:00 -2°C° 0,8 mm 2 m/S 716 mmHg 95%
    05:00 -2°C° 1,5 mm 2 m/S 715 mmHg 95%
    06:00 -1°C° 1,5 mm 2 m/S 715 mmHg 96%
    07:00 -1°C° 1,5 mm 2 m/S 714 mmHg 96%
    08:00 +1°C° 1,1 mm 2 m/S 714 mmHg 96%
    09:00 +2°C° 1,1 mm 2 m/S 714 mmHg 96%
    10:00 +2°C° 1,1 mm 2 m/S 714 mmHg 96%
    11:00 +3°C° 1,1 mm 2 m/S 714 mmHg 97%
    12:00 +3°C° 1,1 mm 2 m/S 713 mmHg 98%
    13:00 +4°C° 1,1 mm 2 m/S 713 mmHg 99%
    14:00 +4°C° 1,1 mm 2 m/S 713 mmHg 99%
    15:00 +4°C° 1,1 mm 2 m/S 714 mmHg 99%
    16:00 +4°C° 1,1 mm 2 m/S 714 mmHg 99%
    17:00 +4°C° 0,8 mm 2 m/S 714 mmHg 99%
    18:00 +4°C° 0,8 mm 2 m/S 715 mmHg 99%
    19:00 +3°C° 0,8 mm 3 m/S 716 mmHg 99%
    20:00 +3°C° 0,3 mm 3 m/S 716 mmHg 99%
    21:00 +3°C° 0,3 mm 3 m/S 717 mmHg 99%
    22:00 +3°C° 0,3 mm 3 m/S 718 mmHg 99%
    23:00 +3°C° 0,2 mm 3 m/S 718 mmHg 98%

    übermorgen, 23 Januar, Dienstag

    Zeit Temperatur Niederschläge Wind Luftdruck Luftfeuchtigkeit
    00:00 +3°C° 0,2 mm 3 m/S 719 mmHg 98%
    01:00 +3°C° 0,2 mm 3 m/S 720 mmHg 97%
    02:00 +2°C° 0,1 mm 3 m/S 720 mmHg 97%
    03:00 +2°C° 0,1 mm 3 m/S 721 mmHg 96%
    04:00 +2°C° 0,1 mm 3 m/S 721 mmHg 96%
    05:00 +3°C° 0,2 mm 2 m/S 721 mmHg 96%
    06:00 +3°C° 0,2 mm 2 m/S 722 mmHg 95%
    07:00 +3°C° 0,2 mm 2 m/S 722 mmHg 95%
    08:00 +3°C° 0,1 mm 2 m/S 723 mmHg 96%
    09:00 +3°C° 0,1 mm 2 m/S 723 mmHg 97%
    10:00 +3°C° 0,1 mm 2 m/S 724 mmHg 98%
    11:00 +5°C° 0 mm 1 m/S 724 mmHg 98%
    12:00 +5°C° 0 mm 1 m/S 724 mmHg 98%
    13:00 +6°C° 0 mm 1 m/S 724 mmHg 98%
    14:00 +6°C° 0 mm 1 m/S 724 mmHg 98%
    15:00 +5°C° 0 mm 1 m/S 724 mmHg 98%
    16:00 +5°C° 0 mm 1 m/S 724 mmHg 98%
    17:00 +4°C° 0 mm 1 m/S 724 mmHg 95%
    18:00 +2°C° 0 mm 2 m/S 725 mmHg 93%
    19:00 +2°C° 0 mm 2 m/S 725 mmHg 90%
    20:00 +1°C° 0 mm 2 m/S 725 mmHg 88%
    21:00 +1°C° 0 mm 2 m/S 725 mmHg 85%
    22:00 +1°C° 0 mm 2 m/S 726 mmHg 83%
    23:00 +1°C° 0 mm 2 m/S 726 mmHg 82%

    24 Januar, Mittwoch

    Zeit Temperatur Niederschläge Wind Luftdruck Luftfeuchtigkeit
    00:00 +2°C° 0 mm 2 m/S 726 mmHg 81%
    01:00 +2°C° 0 mm 2 m/S 726 mmHg 80%
    02:00 +3°C° 0 mm 2 m/S 725 mmHg 81%
    03:00 +3°C° 0 mm 2 m/S 725 mmHg 81%
    04:00 +4°C° 0 mm 2 m/S 725 mmHg 82%
    05:00 +4°C° 0 mm 2 m/S 725 mmHg 80%
    06:00 +3°C° 0 mm 2 m/S 725 mmHg 79%
    07:00 +3°C° 0 mm 2 m/S 725 mmHg 78%
    08:00 +4°C° 0 mm 2 m/S 725 mmHg 79%
    09:00 +5°C° 0 mm 2 m/S 725 mmHg 81%
    10:00 +5°C° 0 mm 2 m/S 725 mmHg 83%
    11:00 +7°C° 0 mm 1 m/S 725 mmHg 85%
    12:00 +8°C° 0 mm 1 m/S 724 mmHg 87%
    13:00 +9°C° 0 mm 1 m/S 724 mmHg 89%
    14:00 +8°C° 0 mm 1 m/S 724 mmHg 90%
    15:00 +8°C° 0 mm 1 m/S 723 mmHg 91%
    16:00 +7°C° 0 mm 1 m/S 723 mmHg 92%
    17:00 +6°C° 0 mm 1 m/S 723 mmHg 90%
    18:00 +5°C° 0 mm 1 m/S 723 mmHg 87%
    19:00 +4°C° 0 mm 2 m/S 723 mmHg 85%
    20:00 +3°C° 0 mm 2 m/S 723 mmHg 83%
    21:00 +3°C° 0 mm 2 m/S 723 mmHg 82%
    22:00 +3°C° 0 mm 2 m/S 723 mmHg 80%
    23:00 +3°C° 0 mm 2 m/S 722 mmHg 79%

    25 Januar, Donnerstag

    Zeit Temperatur Niederschläge Wind Luftdruck Luftfeuchtigkeit
    00:00 +3°C° 0 mm 2 m/S 722 mmHg 77%
    01:00 +3°C° 0 mm 2 m/S 722 mmHg 76%
    02:00 +3°C° 0 mm 2 m/S 722 mmHg 76%
    03:00 +3°C° 0 mm 2 m/S 721 mmHg 75%
    04:00 +2°C° 0 mm 2 m/S 721 mmHg 75%
    05:00 +2°C° 0 mm 2 m/S 721 mmHg 75%
    06:00 +2°C° 0 mm 2 m/S 721 mmHg 75%
    07:00 +2°C° 0 mm 2 m/S 721 mmHg 75%
    08:00 +3°C° 0 mm 2 m/S 720 mmHg 76%
    09:00 +4°C° 0 mm 2 m/S 720 mmHg 77%
    10:00 +5°C° 0 mm 2 m/S 720 mmHg 78%
    11:00 +7°C° 0 mm 1 m/S 719 mmHg 79%
    12:00 +8°C° 0 mm 1 m/S 719 mmHg 81%
    13:00 +9°C° 0 mm 1 m/S 718 mmHg 82%
    14:00 +8°C° 0 mm 1 m/S 718 mmHg 84%
    15:00 +8°C° 0 mm 1 m/S 718 mmHg 86%
    16:00 +7°C° 0 mm 1 m/S 717 mmHg 88%
    17:00 +6°C° 0 mm 1 m/S 717 mmHg 87%
    18:00 +6°C° 0 mm 1 m/S 717 mmHg 87%
    19:00 +4°C° 0 mm 2 m/S 717 mmHg 86%
    20:00 +4°C° 0 mm 2 m/S 717 mmHg 85%
    21:00 +3°C° 0 mm 2 m/S 717 mmHg 85%
    22:00 +3°C° 0 mm 2 m/S 717 mmHg 84%
    23:00 +3°C° 0 mm 2 m/S 717 mmHg 84%

    26 Januar, Freitag

    Zeit Temperatur Niederschläge Wind Luftdruck Luftfeuchtigkeit
    00:00 +3°C° 0 mm 1 m/S 717 mmHg 84%
    01:00 +3°C° 0 mm 1 m/S 716 mmHg 84%
    02:00 +3°C° 0 mm 1 m/S 716 mmHg 85%
    03:00 +2°C° 0 mm 1 m/S 716 mmHg 86%
    04:00 +2°C° 0 mm 1 m/S 716 mmHg 87%
    05:00 +2°C° 0 mm 1 m/S 716 mmHg 88%
    06:00 +2°C° 0 mm 1 m/S 716 mmHg 88%
    07:00 +2°C° 0 mm 1 m/S 716 mmHg 89%
    08:00 +3°C° 0 mm 1 m/S 716 mmHg 89%
    09:00 +4°C° 0 mm 1 m/S 717 mmHg 89%
    10:00 +5°C° 0 mm 1 m/S 717 mmHg 89%
    11:00 +5°C° 0,3 mm 1 m/S 717 mmHg 90%
    12:00 +5°C° 0,3 mm 2 m/S 717 mmHg 91%
    13:00 +5°C° 0,3 mm 2 m/S 717 mmHg 92%
    14:00 +5°C° 0,6 mm 2 m/S 717 mmHg 94%
    15:00 +4°C° 0,6 mm 2 m/S 718 mmHg 95%
    16:00 +4°C° 0,6 mm 2 m/S 718 mmHg 96%
    17:00 +4°C° 0,6 mm 2 m/S 719 mmHg 96%
    18:00 +4°C° 0,6 mm 1 m/S 719 mmHg 96%
    19:00 +4°C° 0,6 mm 1 m/S 720 mmHg 97%
    20:00 +4°C° 0,8 mm 1 m/S 720 mmHg 97%
    21:00 +4°C° 0,8 mm 1 m/S 721 mmHg 97%
    22:00 +4°C° 0,8 mm 1 m/S 721 mmHg 97%
    23:00 +4°C° 0,9 mm 1 m/S 721 mmHg 97%
    Mehr zeigen